Regional Weather Roundup
Issued by NWS Sterling, VA

Home | Current Version | Previous Version | Graphics & Text | Print | Product List | Glossary On
Versions: 1 2 3 4 5 6 7 8 9 10 11 12 13 14 15 16 17 18 19 20 21 22 23 24 25 26 27
000
ASUS41 KLWX 151810
RWRLWX

REGIONAL WEATHER ROUNDUP
NATIONAL WEATHER SERVICE BALTIMORE MD/WASHINGTON DC
100 PM EST SUN JAN 15 2017

Note: "FAIR" indicates few or no clouds below 12,000 feet
with no significant weather and/or obstructions to visibility.
 TC=TEMPERATURE CELSIUS

 * =Non NWS site. Station does not report precipitation (e.g. rain,
    snow, etc.), thunder, or fog.

DCZ001-MDZ009-015-VAZ040>042-051-053>054-151900-
WASHINGTON METRO

CITY           SKY/WX    TMP DP  RH WIND       PRES   REMARKS
WASHINGTON NAT PTSUNNY   47  18  31 N9        30.38F
DULLES         PTSUNNY   44  20  38 N6        30.37F
ANDREWS AFB    SUNNY     44  20  39 VRB6      30.35F
FT BELVOIR     SUNNY     47  14  26 NE5       30.37F
QUANTICO       SUNNY     45  30  55 E9        30.39F
COLLEGE PARK*  SUNNY     43  19  39 CALM      30.37F
MANASSAS*      SUNNY    N/A N/A N/A NE6       30.37F
GAITHERSBURG*  SUNNY     43  18  36 N5        30.40F

$$

MDZ006>007-011-014-151900-
BALTIMORE METRO

CITY           SKY/WX    TMP DP  RH WIND       PRES   REMARKS
BWI AIRPORT    PTSUNNY   42  27  55 N7        30.37F
MD SCIENCE CTR   N/A     41  26  55 MISG      30.40F
MARTIN STATE   MOSUNNY   41  30  65 N3        30.40F
ANNAPOLIS      SUNNY     43  21  41 N6        30.37F
FORT MEADE*    SUNNY     43  23  45 N7        30.39F

$$

MDZ012-015-019>023-151900-
MARYLAND EASTERN SHORE

CITY           SKY/WX    TMP DP  RH WIND       PRES   REMARKS
OCEAN CITY     SUNNY     43  26  51 N6        30.36F
SALISBURY      SUNNY     42  26  53 E5        30.36F
BAY BRIDGE AP* SUNNY     39  27  60 N8        30.38F
CAMBRIDGE*     SUNNY     41  28  60 N3        30.37F
EASTON*        SUNNY     43  27  52 NE6       30.41F

$$

MDZ017>025-151900-
SOUTHERN MARYLAND

CITY           SKY/WX    TMP DP  RH WIND       PRES   REMARKS
PATUXENT RIVER PTSUNNY   41  25  53 N10       30.38F
ST INIGOES     NOT AVBL
LEONARDTOWN*   SUNNY     41  19  42 N6        30.39F

$$

MDZ003>005-151900-
NORTH CENTRAL MARYLAND

CITY           SKY/WX    TMP DP  RH WIND       PRES   REMARKS
FREDERICK*     SUNNY     41  21  45 N6        30.41F
HAGERSTOWN APT SUNNY     40  18  41 NW9       30.37F
WESTMINSTER*   SUNNY     36  25  64 NW5       30.34F

$$

MDZ501>502-151900-
WESTERN MARYLAND

CITY           SKY/WX    TMP DP  RH WIND       PRES   REMARKS
OAKLAND*       PTSUNNY   32  30  93 W8        30.28F WCI  25
CUMBERLAND*    MOSUNNY   41  32  70 CALM      30.40F

$$

VAZ025>031-151900-
SHENANDOAH VALLEY

CITY           SKY/WX    TMP DP  RH WIND       PRES   REMARKS
WINCHESTER*    CLOUDY    41  28  60 NW3       30.35F
FRONT ROYAL*   NOT AVBL
LURAY*         FAIR      45  37  76 NE5       30.33F
NEW MARKET*    FAIR      47  35  63 N5        30.32F
STAUNTON*      CLOUDY    44  38  79 CALM      30.32F
WAYNESBORO*    FAIR      44  39  81 CALM      30.30F

$$

WVZ021-048>050-054>055-151900-
EASTERN WEST VIRGINIA PANHANDLE

CITY           SKY/WX    TMP DP  RH WIND       PRES   REMARKS
MARTINSBURG    SUNNY     41  17  38 N10       30.36F
PETERSBURG*    CLOUDY    44  37  78 CALM      30.35F

$$

VAZ036>039-050-151900-
CENTRAL FOOTHILLS

CITY           SKY/WX    TMP DP  RH WIND       PRES   REMARKS
CHARLOTTESVILL CLOUDY    43  38  82 NE9       30.35F
CULPEPER*      MOSUNNY   49  35  58 NE5       30.36F
ORANGE*          N/A     45  39  81 CALM      30.36F
GORDONSVILLE*  CLOUDY    42  37  82 NE3       30.35F
WARRENTON*     FAIR      49  29  46 NE8       30.35F

$$

VAZ055>057-151900-
NORTH AND CENTRAL PIEDMONT

CITY           SKY/WX    TMP DP  RH WIND       PRES   REMARKS
FREDERICKSBRG* SUNNY     47  35  62 CALM      30.37F
STAFFORD*      SUNNY     47  31  53 N10       30.40F

$$

NCZ024-NYZ072-PAZ021-071-VAZ022-071-151900-
OTHER REGIONAL OBSERVATIONS

CITY           SKY/WX    TMP DP  RH WIND       PRES   REMARKS
NEW YORK CITY  SUNNY     37  20  50 NW8       30.35F
PHILADELPHIA   PTSUNNY   40  20  44 N12       30.37F
PITTSBURGH     CLOUDY    32  21  64 CALM      30.37F
ROANOKE        CLOUDY    50  43  77 SE6       30.32F
RICHMOND       PTSUNNY   46  26  45 N10       30.36F
RALEIGH        PTSUNNY   55  42  61 E8        30.32F

$$

ANZ530>537-151900-
MARINE OBSERVATIONS

STATION/POSITION TIME  TEMP    WIND        PRES
                       AIR SEA DIR/SP/G
                 (UTC) (F)     (DEG/KT/KT) (MB)
THOMAS PT LIGHT  1800   36 38   50/ 10/ 11   N/A
BALT KEY BRIDGE  1748   38     320/  6/  7 1028.9F
COVE POINT       1748   37      20/ 10/ 12 1029.6F
LEWISETTA        1748   41 42   20/  6/  8 1028.5F
SOLOMONS ISLAND  1748   39 41   20/  7/ 10   N/A
PINEY POINT      1748           30/ 10/ 12   N/A

$$





USA.gov is the U.S. government's official web portal to all federal, state and local government web resources and services.